{"data":{"norad_id":67507,"epoch":"2026-05-24T23:27:45.271584Z","epoch_age_seconds":80131,"freshness":"FRESH","line1":"1 67507U 26012Q   26144.97760731  .00009043  00000+0  33769-3 0  9999","line2":"2 67507  43.0019 243.1677 0001018 273.6266  86.4469 15.27583996 19435","mean_motion":15.27583996,"eccentricity":0.0001018,"inclination_deg":43.0019,"raan_deg":243.1677,"arg_perigee_deg":273.6266,"mean_anomaly_deg":86.4469,"bstar":0.00033769,"rev_number":1943,"period_min":94.266502121694,"perigee_km":482.33866307769,"apogee_km":483.73559813068,"semimajor_km":6861.1741306042,"source":"CELESTRAK","updated_at":"2026-05-25T13:38:21.569457Z"}}